TJS-4

Last updated on Sat Apr 13 2024 01:02:39 GMT+0100 (British Summer Time)

1 44637U 19070A 24103.53734480 -.00000179 00000+0 00000+0 0 9991 2 44637 0.0382 9.1067 0003553 43.4218 65.5833 1.00274049 16565
UTC large
Height (km)
Speed (km/s)
/
Latitude / Longitude
Inclination (degrees)
Orbital Period (minutes)
Azimuth
Elevation
Range (km)
Doppler Factor

Next 0 passes for location: London (51.5072 / 0.1276)

Sorry there are no passes over London.